Fredericton, New Brunswick

2:03 PM ADT on April 25, 2017 (GMT -0300)
Fredericton

Weather History for CYFC - August, 2014

Change the Weather History Date:

Friday, August 15, 2014

  Actual Average Record
Temperature  
Mean Temperature 66 °F -  
Max Temperature 73 °F 72 °F 93 °F (2002)
Min Temperature 59 °F 49 °F 44 °F (1996)
Cooling Degree Days 1    
Growing Degree Days 16 (Base 50)    
Moisture  
Dew Point 62 °F    
Average Humidity 93    
Maximum Humidity 100    
Minimum Humidity 50    
Precipitation  
Precipitation 0.59 in 0.13 in - ()
Sea Level Pressure  
Sea Level Pressure 29.82 in    
Wind  
Wind Speed 3 mph ()    
Max Wind Speed 9 mph    
Max Gust Speed -    
Visibility 3.4 miles    
Events Rain    
Averages and records for this station are not official NWS values.
T = Trace of Precipitation, MM = Missing Value Source: Averaged Metar Reports

Daily Weather History Graph

Daily Weather History Graph

Search for Another Location

Airport or City:

Trip Planner

Search our weather history database for the weather conditions in past years. The results will help you decide how hot, cold, wet, or windy it might be!

Date:

Astronomy

Aug. 15, 2014 Rise Set
Actual Time 6:25 AM ADT 8:34 PM ADT
Civil Twilight 5:53 AM ADT 9:06 PM ADT
Nautical Twilight 5:12 AM ADT 9:46 PM ADT
Astronomical Twilight 4:27 AM ADT 10:31 PM ADT
Moon 11:12 PM ADT (8/15) 12:24 PM ADT (8/15)
Length of Visible Light 15h 13m
Length of Day
14h 08m
Waning Gibbous, 70% of the Moon is Illuminated
Aug 15
Waning Gibbous
Aug 17
Last Quarter
Aug 25
New
Sep 2
First Quarter
Sep 8
Full

Hourly Weather History & Observations

Time (ADT) Temp. Dew Point Humidity Pressure Visibility Wind Dir Wind Speed Gust Speed Precip Events Conditions
12:00 AM 64.4 °F 64.4 °F 100% 29.84 in 1.8 mi ESE 3.5 mph - N/A Rain Light Rain
12:12 AM 64.4 °F 64.4 °F 100% 29.84 in 1.5 mi East 3.5 mph - N/A Rain Light Rain
12:17 AM 64.4 °F 64.4 °F 100% 29.84 in 1.5 mi East 3.5 mph - N/A Rain Rain
12:18 AM 64.4 °F 64.4 °F 100% 29.84 in 1.5 mi ESE 3.5 mph - N/A Rain Rain
12:24 AM 64.4 °F 64.4 °F 100% 29.84 in 2.0 mi ESE 2.3 mph - N/A Rain Rain
12:28 AM 64.4 °F 64.4 °F 100% 29.84 in 2.2 mi ESE 3.5 mph - N/A Rain Rain
12:30 AM 64.4 °F 64.4 °F 100% 29.84 in 2.5 mi ESE 3.5 mph - N/A Rain Rain
12:46 AM 64.4 °F 64.4 °F 100% 29.84 in 1.8 mi ESE 3.5 mph - N/A Rain Light Rain
12:56 AM 64.4 °F 64.4 °F 100% 29.84 in 1.2 mi SE 2.3 mph - N/A Rain Light Rain
1:00 AM 64.4 °F 64.4 °F 100% 29.84 in 1.2 mi SE 3.5 mph - N/A Rain Light Rain
1:10 AM 64.4 °F 64.4 °F 100% 29.84 in 1.5 mi SE 3.5 mph - N/A Rain Light Rain
1:12 AM 64.4 °F 64.4 °F 100% 29.84 in 1.5 mi SE 2.3 mph - N/A Rain Light Rain
1:24 AM 64.4 °F 64.4 °F 100% 29.84 in 1.2 mi SE 2.3 mph - N/A Rain Light Rain
2:26 AM 64.4 °F 64.4 °F 100% 29.83 in 2.0 mi ESE 2.3 mph - N/A Rain Rain
2:27 AM 64.4 °F 64.4 °F 100% 29.83 in 2.0 mi ESE 2.3 mph - N/A Rain Rain
2:36 AM 64.4 °F 64.4 °F 100% 29.83 in 1.8 mi ESE 3.5 mph - N/A Rain Light Rain
2:55 AM 64.4 °F 64.4 °F 100% 29.83 in 1.5 mi Calm Calm - N/A Rain Light Rain
3:00 AM 64 °F 63 °F 96% 29.83 in 1 mi South 2.3 mph - - Rain Light Rain
3:00 AM 64.4 °F 62.6 °F 94% 29.83 in 1.5 mi Variable 5.8 mph - N/A Rain Light Rain
3:08 AM 64.4 °F 62.6 °F 94% 29.82 in 2.0 mi West 3.5 mph - N/A Rain Light Rain
3:11 AM 64.4 °F 62.6 °F 94% 29.82 in 1.8 mi West 3.5 mph - N/A Rain Rain
3:20 AM 64.4 °F 62.6 °F 94% 29.82 in 1.8 mi Variable 2.3 mph - N/A Rain Light Rain
3:22 AM 64.4 °F 62.6 °F 94% 29.82 in 2.0 mi Variable 2.3 mph - N/A Rain Light Rain
3:40 AM 64.4 °F 62.6 °F 94% 29.82 in 3.0 mi West 2.3 mph - N/A Rain Light Rain
3:49 AM 62.6 °F 62.6 °F 100% 29.82 in 2.2 mi West 2.3 mph - N/A Rain Light Rain
3:52 AM 62.6 °F 62.6 °F 100% 29.82 in 1.8 mi West 2.3 mph - N/A Rain Light Rain
3:58 AM 62.6 °F 62.6 °F 100% 29.81 in 2.0 mi Variable 2.3 mph - N/A Rain Light Rain
4:00 AM 62.6 °F 62.6 °F 100% 29.81 in 2.2 mi Variable 2.3 mph - N/A Rain Light Rain
4:07 AM 62.6 °F 62.6 °F 100% 29.81 in 1.8 mi West 2.3 mph - N/A Rain Light Rain
4:19 AM 62.6 °F 62.6 °F 100% 29.81 in 1.8 mi Variable 2.3 mph - N/A Rain Light Rain
4:33 AM 62.6 °F 62.6 °F 100% 29.81 in 2.0 mi Variable 2.3 mph - N/A Rain Light Rain
4:37 AM 62.6 °F 62.6 °F 100% 29.81 in 3.0 mi Calm Calm - N/A Rain Light Rain
4:44 AM 62.6 °F 62.6 °F 100% 29.81 in 2.2 mi Calm Calm - N/A Rain Light Rain
4:46 AM 62.6 °F 62.6 °F 100% 29.81 in 1.8 mi Calm Calm - N/A Rain Light Rain
5:00 AM 62.6 °F 62.6 °F 100% 29.81 in 1.5 mi Variable 2.3 mph - N/A Rain Light Rain
5:22 AM 62.6 °F 62.6 °F 100% 29.80 in 2.0 mi Calm Calm - N/A Rain Light Rain
5:26 AM 62.6 °F 62.6 °F 100% 29.80 in 1.8 mi Calm Calm - N/A Rain Light Rain
5:28 AM 62.6 °F 62.6 °F 100% 29.80 in 1.8 mi Calm Calm - N/A Rain Light Rain
5:36 AM 62.6 °F 62.6 °F 100% 29.81 in 1.2 mi Calm Calm - N/A Rain Light Rain
6:00 AM 62.6 °F 62.6 °F 100% 29.81 in 1.2 mi Calm Calm - N/A Rain Light Rain
6:32 AM 62.6 °F 62.6 °F 100% 29.81 in 1.8 mi NNE 2.3 mph - N/A Rain Heavy Rain
6:36 AM 62.6 °F 62.6 °F 100% 29.81 in 1.8 mi North 2.3 mph - N/A Rain Rain
6:42 AM 62.6 °F 62.6 °F 100% 29.81 in 1.8 mi Variable 2.3 mph - N/A Rain Light Rain
6:53 AM 62.6 °F 62.6 °F 100% 29.80 in 1.2 mi NNW 2.3 mph - N/A Rain Light Rain
7:00 AM 62.6 °F 62.6 °F 100% 29.80 in 1.2 mi North 2.3 mph - N/A Rain Light Rain
7:16 AM 62.6 °F 62.6 °F 100% 29.80 in 1.2 mi North 4.6 mph - N/A Rain Light Rain
7:32 AM 64.4 °F 62.6 °F 94% 29.80 in 1.0 mi NNE 4.6 mph - N/A Rain Rain
7:34 AM 62.6 °F 62.6 °F 100% 29.80 in 1.0 mi NNE 3.5 mph - N/A Rain Rain
7:36 AM 62.6 °F 62.6 °F 100% 29.80 in 1.0 mi NNE 3.5 mph - N/A Rain Light Rain
7:37 AM 62.6 °F 62.6 °F 100% 29.80 in 1.0 mi NNE 3.5 mph - N/A Rain Light Rain
7:41 AM 64.4 °F 62.6 °F 94% 29.80 in 1.0 mi NNE 3.5 mph - N/A Rain Light Rain
7:55 AM 64.4 °F 62.6 °F 94% 29.80 in 2.0 mi ENE 2.3 mph - N/A Rain Light Rain
8:00 AM 64.4 °F 62.6 °F 94% 29.80 in 2.5 mi Calm Calm - N/A Rain Light Rain
8:05 AM 64.4 °F 62.6 °F 94% 29.80 in 1.8 mi Variable 2.3 mph - N/A Rain Light Rain
8:25 AM 64.4 °F 64.4 °F 100% 29.80 in 1.0 mi ESE 3.5 mph - N/A Rain Light Rain
8:38 AM 64.4 °F 62.6 °F 94% 29.80 in 1.2 mi West 4.6 mph - N/A Rain Rain
8:47 AM 62.6 °F 62.6 °F 100% 29.80 in 2.0 mi West 8.1 mph - N/A Rain Rain
8:51 AM 62.6 °F 62.6 °F 100% 29.80 in 2.2 mi West 4.6 mph - N/A Rain Rain
9:00 AM 63 °F 62 °F 96% 29.80 in 2 mi West 5.8 mph - - Rain Light Rain
9:00 AM 62.6 °F 62.6 °F 100% 29.80 in 2.0 mi West 8.1 mph - N/A Rain Light Rain
9:01 AM 62.6 °F 62.6 °F 100% 29.80 in 2.0 mi West 9.2 mph - N/A Rain Light Rain
9:02 AM 62.6 °F 62.6 °F 100% 29.80 in 2.0 mi West 9.2 mph - N/A Rain Light Rain
9:44 AM 62.6 °F 60.8 °F 94% 29.80 in 3.0 mi West 3.5 mph - N/A Rain Light Rain
10:00 AM 62.6 °F 60.8 °F 94% 29.81 in 3.0 mi WNW 3.5 mph - N/A Rain Light Rain
10:01 AM 62.6 °F 60.8 °F 94% 29.81 in 2.2 mi NW 3.5 mph - N/A Rain Light Rain
10:26 AM 62.6 °F 60.8 °F 94% 29.81 in 2.5 mi West 4.6 mph - N/A Rain Light Rain
10:35 AM 62.6 °F 60.8 °F 94% 29.81 in 1.8 mi West 3.5 mph - N/A Rain Light Rain
10:42 AM 62.6 °F 60.8 °F 94% 29.81 in 1.8 mi WNW 4.6 mph - N/A Rain Rain
10:45 AM 62.6 °F 62.6 °F 100% 29.81 in 2.0 mi NW 3.5 mph - N/A Rain Rain
10:58 AM 62.6 °F 60.8 °F 94% 29.80 in 3.0 mi Calm Calm - N/A Rain Light Rain
10:59 AM 64.4 °F 62.6 °F 94% 29.80 in 3.0 mi Calm Calm - N/A Rain Light Rain
11:00 AM 64.4 °F 60.8 °F 88% 29.80 in 4.0 mi Calm Calm - N/A Rain Light Rain
11:04 AM 64.4 °F 62.6 °F 94% 29.80 in 6.0 mi Variable 2.3 mph - N/A Rain Light Rain
11:08 AM 64.4 °F 60.8 °F 88% 29.80 in 7.0 mi Variable 2.3 mph - N/A Rain Light Rain
11:24 AM 64.4 °F 62.6 °F 94% 29.80 in 9.0 mi Variable 2.3 mph - N/A   Overcast
11:37 AM 64.4 °F 62.6 °F 94% 29.80 in 9.0 mi WSW 5.8 mph - N/A   Overcast
11:44 AM 64.4 °F 62.6 °F 94% 29.80 in 5.0 mi West 4.6 mph - N/A   Overcast
11:52 AM 66.2 °F 62.6 °F 88% 29.80 in 6.0 mi SW 5.8 mph - N/A   Overcast
12:00 PM 66.2 °F 62.6 °F 88% 29.81 in 9.0 mi West 4.6 mph - N/A   Overcast
12:44 PM 69.8 °F 62.6 °F 78% 29.81 in 9.0 mi West 4.6 mph - N/A   Mostly Cloudy
1:00 PM 69.8 °F 62.6 °F 78% 29.81 in 9.0 mi WNW 5.8 mph - N/A   Scattered Clouds
1:18 PM 69.8 °F 62.6 °F 78% 29.81 in 9.0 mi West 5.8 mph - N/A   Mostly Cloudy
1:22 PM 69.8 °F 62.6 °F 78% 29.81 in 9.0 mi WNW 6.9 mph - N/A   Mostly Cloudy
1:31 PM 69.8 °F 60.8 °F 73% 29.81 in 9.0 mi WNW 5.8 mph - N/A   Mostly Cloudy
1:40 PM 71.6 °F 62.6 °F 73% 29.81 in 9.0 mi West 5.8 mph - N/A   Mostly Cloudy
2:00 PM 71.6 °F 59.0 °F 64% 29.81 in 9.0 mi West 8.1 mph - N/A   Mostly Cloudy
3:00 PM 72 °F 59 °F 54% 29.82 in 10 mi West 6.9 mph - -  
3:00 PM 71.6 °F 59.0 °F 64% 29.82 in 9.0 mi West 6.9 mph - N/A   Partly Cloudy
4:00 PM 73.4 °F 55.4 °F 53% 29.82 in 9.0 mi NW 8.1 mph - N/A   Clear
5:00 PM 73.4 °F 53.6 °F 50% 29.83 in 9.0 mi West 5.8 mph - N/A   Clear
6:00 PM 69.8 °F 57.2 °F 64% 29.83 in 9.0 mi WNW 2.3 mph - N/A   Clear
7:00 PM 68.0 °F 59.0 °F 73% 29.83 in 9.0 mi West 2.3 mph - N/A   Scattered Clouds
8:55 PM 62.6 °F 59.0 °F 88% 29.85 in 3.0 mi Calm Calm - N/A   Clear
9:00 PM 62 °F 59 °F 88% 29.85 in 3 mi ESE 1.2 mph - -   Mist
9:00 PM 62.6 °F 59.0 °F 88% 29.85 in 3.0 mi Calm Calm - N/A   Partly Cloudy
9:06 PM 62.6 °F 59.0 °F 88% 29.85 in 8.0 mi Calm Calm - N/A   Scattered Clouds
10:00 PM 59.0 °F 59.0 °F 100% 29.87 in 9.0 mi SSW 4.6 mph - N/A   Clear
11:00 PM 59.0 °F 57.2 °F 94% 29.87 in 9.0 mi South 6.9 mph - N/A   Clear